Find Starlink 35594

NORAD ID: 66157 Int'l Des: 2025-240 Owner: SPXS Country: US Constellation: starlink operational
LEOCIRCULAR

实时位置

正在加载3D地球...

关于 Starlink 35594

正在加载描述...

即将过境

Passes for default location (London). Set your location on the main map for personalized predictions.

高度历史

Loading altitude history...

两行轨道根数

1 66157U 25240M 26106.77494360 .00014766 00000-0 50955-3 0 9994
2 66157 53.1606 245.6100 0000539 69.3851 290.7208 15.30207821 27821
Epoch: Apr 16, 2026 • Age: 20 hours

当前状态

高度 479.8 km
速度 7.63 km/s
星下点 -16.59°S, 14.66°E
发射日期 Oct 25, 2025
运行时间 0.4 years
类型 internet

技术详情

分类 Payload
质量 575.00 kg
干质量 530.00 kg
总质量 575.00 kg
长度 0.30 m
直径 4.10 m
跨度 29.00 m
形状 Box + pan
制造商 SPXS
平台类型 Starlink V2MO
阶段状态 In Orbit
所有者/国家 SPXS/US

Most Searched